Temperature
17 18 19 19 19 20 21 23 25 25 26 26 25 25 25 24 22 19 18 18 18 18 17 16 15 14 14 13 13 13 13 13 12 12 12 12 12 12 11 11 11 11 11 11 11 11 12 12 13
17 18 19 20 19 20 22 23 25 25 25 25 25 25 25 23 21 20 18 18 18 17 17 16 15 14 14 13 13 13 13 12 12 12 11 11 11 11 11 11 11 11 11 11 11 11 12 12 13
17 18 19 20 20 21 23 25 25 25 25 24 25 25 25 23 21 20 19 18 18 17 17 16 15 14 14 13 13 13 13 12 12 12 11 11 11 11 11 11 12 11 11 11 11 11 12 12 13
17 18 20 20 21 23 24 25 25 24 25 24 25 24 23 22 21 21 20 19 17 16 16 16 15 15 14 13 13 12 12 12 12 11 11 11 11 11 11 12 12 12 12 12 12 12 12 12 13
18 20 19 20 21 24 25 26 25 24 24 24 25 24 22 21 21 21 20 18 17 16 16 16 15 15 14 13 13 12 12 12 11 11 11 11 11 11 12 12 12 12 11 11 12 12 12 12 12
19 20 20 20 22 24 25 25 25 24 25 25 24 24 21 21 21 20 19 18 17 16 16 16 15 15 14 13 13 12 12 12 11 11 11 11 11 11 11 11 12 12 12 12 12 12 12 12 12
19 19 20 21 22 23 25 25 24 24 24 25 24 24 20 20 21 20 19 18 17 16 16 16 15 14 14 13 12 12 12 12 11 11 11 11 11 11 11 11 12 12 12 11 11 11 11 11 11
19 20 20 21 22 23 25 24 24 24 24 25 24 24 21 20 20 20 18 17 16 16 16 16 15 14 14 13 12 12 12 11 11 11 11 11 11 11 11 11 11 11 11 11 11 11 11 11 11
19 18 19 21 22 23 24 24 24 23 23 24 24 22 21 21 20 19 18 17 16 15 15 15 15 14 13 13 12 12 11 11 11 11 11 11 10 10 10 10 11 11 11 10 10 10 10 10 10
19 17 19 22 23 23 24 23 24 23 23 23 22 21 20 20 19 19 19 18 17 16 15 15 14 14 13 12 12 12 11 11 11 11 10 10 10 9 9 10 10 10 10 10 10 10 10 9 9
19 19 20 22 23 23 23 23 23 23 22 23 23 21 21 20 19 19 19 19 18 17 16 15 14 14 13 12 12 12 11 11 10 10 10 10 9 9 9 9 9 9 9 9 9 9 9 8 8
20 20 21 22 22 22 22 22 22 22 23 23 23 22 21 20 20 19 19 18 17 17 16 15 14 14 13 13 12 12 11 11 10 10 10 9 9 9 9 9 9 9 9 9 8 8 8 8 8
20 20 21 22 21 21 21 21 21 22 22 22 22 22 21 21 20 20 19 18 18 17 16 15 14 14 13 13 12 12 11 11 10 10 10 9 9 9 9 9 9 8 8 8 8 8 8 8 8
20 21 21 21 21 21 20 20 21 21 22 22 22 22 21 21 20 20 19 18 18 17 16 15 14 14 13 13 12 12 11 11 10 10 10 9 9 9 9 9 9 9 8 8 8 8 8 8 8
20 19 20 20 21 21 20 18 19 21 21 22 22 22 21 21 21 20 20 19 19 18 17 16 15 14 13 13 12 12 11 11 10 10 10 10 9 9 9 9 9 9 8 8 8 8 8 8 8
19 18 18 19 20 20 19 17 20 21 22 21 22 22 22 21 21 21 20 20 19 18 17 16 15 14 13 13 12 12 11 11 11 10 10 10 9 9 9 9 9 9 8 8 8 8 8 8 8
18 17 18 19 20 20 18 17 19 21 22 21 21 21 22 22 21 21 20 20 19 18 17 16 15 14 13 13 12 12 11 11 11 10 10 10 9 9 9 9 9 8 8 8 8 8 8 8 8
17 18 18 19 20 19 18 18 19 21 21 21 21 21 22 22 22 21 21 20 19 18 17 16 15 14 13 12 12 11 11 11 10 10 10 10 10 9 9 9 9 9 8 8 8 8 8 8 8
18 18 18 19 21 19 18 18 19 20 21 20 21 21 21 22 21 21 21 20 19 18 17 16 15 14 13 12 12 11 11 11 10 10 10 10 10 9 9 9 9 9 9 8 8 8 8 8 8
18 17 18 19 20 19 18 18 19 19 19 21 21 21 21 21 21 21 21 20 19 18 17 16 15 14 13 13 12 12 12 11 11 10 10 10 10 10 9 9 9 9 9 9 8 8 8 8 7
17 17 17 18 18 19 18 17 18 19 20 21 21 21 21 21 21 21 21 20 19 18 17 16 15 14 14 13 12 11 11 10 10 10 10 10 10 10 10 9 9 9 9 9 8 8 8 8 7
17 18 18 18 17 16 17 15 17 19 19 19 20 21 21 21 21 21 20 20 19 18 17 16 15 15 14 13 12 11 11 11 11 10 10 10 10 10 10 9 9 9 9 9 8 8 8 8 7
17 18 18 17 16 15 16 15 16 19 19 19 19 21 21 21 21 20 20 19 19 18 17 16 15 14 14 13 12 12 11 11 11 10 10 10 10 10 10 9 9 9 9 9 8 8 8 8 7
18 18 17 16 15 14 15 15 16 18 19 20 20 21 21 20 20 20 19 19 18 17 16 15 15 14 14 13 12 12 11 11 10 10 10 10 10 10 10 9 9 9 9 9 9 8 8 8 7
17 16 14 13 12 13 16 16 16 19 20 20 20 20 20 20 19 19 18 17 17 16 16 15 14 14 14 13 12 12 11 11 11 11 11 10 10 10 10 10 9 9 9 9 9 8 8 8 7
16 16 14 13 13 15 16 16 17 20 20 21 21 20 20 19 18 18 17 17 16 16 15 14 14 14 14 13 12 11 11 11 10 11 11 11 11 11 10 10 9 9 9 9 9 8 8 8 7
16 15 16 15 15 14 16 17 19 20 19 19 19 19 19 18 18 17 16 16 15 15 14 14 13 13 13 13 12 11 11 10 10 10 10 10 10 10 10 10 9 9 9 9 8 8 8 7 7
17 16 15 14 13 12 14 16 17 18 18 18 18 18 19 18 17 16 16 15 14 14 13 13 13 13 13 12 12 11 11 10 10 10 10 10 10 10 10 10 9 9 9 9 8 8 7 7 7
15 15 15 14 13 13 13 15 19 18 19 18 18 19 19 18 17 16 15 14 14 13 12 12 12 12 12 12 11 11 11 10 10 10 10 10 10 10 10 10 10 9 9 9 8 8 7 7 6
16 15 15 13 13 14 14 15 20 19 19 18 18 19 18 18 17 16 15 14 13 13 12 12 11 11 11 11 11 11 10 10 10 10 10 10 10 10 10 10 10 9 9 8 8 7 7 7 6
Wind_Speed
10 13 8 3 4 6 10 7 3 4 3 5 6 3 3 6 6 8 7 11 16 17 21 21 20 18 17 16 16 16 15 14 14 14 13 13 13 14 14 15 15 15 15 16 16 16 16 16 16
10 9 6 4 5 8 8 8 4 5 6 8 5 1 1 7 9 10 8 13 16 18 21 20 20 19 18 17 17 16 15 14 14 14 13 13 13 13 13 14 14 14 14 14 14 15 15 15 15
11 9 5 4 6 9 5 7 7 7 8 6 5 2 2 8 11 9 10 15 15 16 20 21 21 19 18 18 17 17 16 15 14 14 13 13 13 13 13 13 13 13 13 13 13 13 14 13 13
6 4 5 7 11 10 7 2 7 9 7 4 5 5 6 7 6 11 14 15 15 13 19 22 21 20 19 18 18 17 16 15 14 14 13 13 13 13 13 13 13 12 12 12 12 12 12 12 12
5 4 7 9 12 8 5 2 5 8 9 7 6 5 8 6 14 15 14 15 14 13 19 22 21 20 20 19 18 17 16 15 15 14 13 13 12 12 12 12 12 11 11 11 11 11 11 11 11
4 5 7 10 12 9 5 4 3 5 8 9 6 4 8 10 13 13 12 13 13 13 18 21 21 21 20 19 19 17 16 16 15 14 13 13 12 12 11 11 11 10 10 10 10 10 10 10 9
6 6 9 10 9 8 6 6 7 8 7 8 7 4 9 10 12 13 12 12 12 13 16 18 19 19 19 19 19 18 17 17 16 15 14 13 12 11 10 10 9 9 9 8 8 8 7 7 7
5 5 9 11 9 5 6 5 4 6 5 4 6 3 9 12 13 12 11 11 12 12 14 15 18 18 17 17 18 18 18 18 17 16 15 13 12 11 10 10 8 7 7 6 6 6 5 4 3
5 6 8 9 7 3 6 5 5 1 5 1 4 7 10 15 14 12 10 9 11 12 13 14 14 17 18 18 18 18 18 18 18 16 16 14 13 12 11 10 8 6 5 4 4 3 1 1 2
6 7 10 6 4 2 4 5 6 5 7 5 6 8 10 12 13 14 13 13 13 13 13 14 14 14 17 17 17 16 16 17 17 16 16 14 12 11 11 12 9 6 5 4 3 3 4 5 6
8 9 10 10 6 6 2 2 4 5 8 8 9 14 13 11 12 13 14 14 14 14 13 13 13 14 14 12 15 14 14 16 16 17 17 12 11 11 12 11 9 8 7 7 6 6 7 5 1
12 11 11 10 3 1 5 5 6 8 8 6 3 11 15 14 14 14 14 14 13 14 14 13 13 12 13 13 13 13 12 13 12 15 16 11 9 8 9 9 10 10 8 6 6 5 5 3 2
15 14 12 9 4 4 6 9 9 9 9 8 4 5 13 14 14 14 13 13 13 15 15 14 13 13 12 11 9 11 11 12 14 15 15 13 8 6 7 6 7 7 6 5 4 4 3 2 2
10 11 12 11 9 8 9 10 11 11 10 10 8 8 11 13 13 13 13 13 14 16 16 14 14 13 13 10 8 8 11 14 14 15 15 14 11 8 6 4 5 5 4 3 3 3 1 1 2
11 10 11 11 11 9 7 12 14 14 13 13 12 11 12 13 13 13 13 13 14 15 17 16 15 14 14 13 10 9 12 14 12 14 17 15 12 10 8 5 4 5 5 3 2 3 1 2 2
9 10 11 11 11 10 8 12 10 10 12 13 12 11 11 12 13 12 13 12 13 14 17 17 15 15 15 13 11 9 12 13 12 15 16 16 15 13 9 5 4 7 6 4 2 1 1 2 2
11 11 12 11 12 11 11 10 9 9 8 9 10 11 11 11 12 12 13 13 13 14 16 18 16 16 15 13 10 9 11 11 12 14 14 15 15 14 10 6 6 7 5 3 2 1 1 1 2
10 13 12 11 9 12 12 12 11 11 10 10 11 11 11 11 12 11 12 13 13 13 15 18 17 16 15 12 10 8 9 9 11 12 13 15 14 14 11 7 7 7 4 3 2 2 1 0 1
13 12 11 10 7 9 11 13 13 12 11 12 12 12 12 12 11 11 12 13 13 13 15 17 17 17 14 13 12 11 10 9 8 9 14 15 14 14 11 6 6 6 4 4 3 2 1 0 1
18 17 14 10 6 6 10 13 12 13 13 13 13 13 12 12 11 10 11 13 14 15 15 17 19 18 16 13 12 10 10 8 8 7 11 14 14 14 11 7 6 5 4 4 3 3 2 0 1
19 17 15 11 9 9 10 13 14 14 15 15 14 14 13 13 12 10 11 12 13 15 16 16 18 18 17 14 11 9 8 7 6 8 8 10 14 14 12 10 7 6 5 4 4 4 3 2 1
18 15 13 11 10 9 8 11 11 11 12 12 13 12 12 11 11 10 11 13 14 15 14 14 16 17 16 16 15 16 13 9 8 9 7 8 12 13 13 11 9 6 5 5 4 4 3 3 2
14 9 10 10 10 12 12 11 9 10 12 11 11 10 9 9 9 9 10 12 12 12 13 13 14 16 16 17 17 16 12 9 8 9 10 9 8 11 12 11 9 7 5 6 6 5 4 3 3
11 8 7 7 7 13 15 12 9 9 10 8 8 7 7 6 6 6 8 10 10 10 11 12 13 15 16 17 17 17 15 13 13 12 12 10 7 7 9 10 9 7 6 6 6 5 5 3 3
12 9 6 7 8 10 10 11 9 9 8 8 7 6 5 5 6 6 8 10 11 12 12 12 14 15 17 18 18 18 16 15 15 13 12 11 8 7 9 8 7 7 7 8 7 5 5 4 4
16 16 11 8 7 6 9 12 8 7 7 7 6 5 5 6 6 7 8 10 11 12 13 13 14 14 17 18 17 16 15 12 11 12 11 11 9 8 10 9 8 9 9 8 7 5 5 4 5
17 18 15 9 8 7 7 7 9 8 6 7 7 7 7 6 7 8 8 9 11 12 13 13 14 14 16 16 15 15 15 13 11 12 11 10 9 9 11 10 9 9 9 8 7 5 5 5 5
16 13 8 10 8 9 9 12 9 9 10 9 8 7 7 7 7 8 8 9 10 11 10 11 12 13 13 14 14 12 13 12 12 12 12 12 11 11 13 12 11 10 9 9 7 6 6 6 5
16 17 10 8 8 7 7 7 8 11 10 10 8 7 8 8 7 8 8 8 9 10 11 11 12 12 13 14 13 12 12 12 12 12 12 12 11 13 13 13 12 11 10 9 8 7 7 7 5
17 20 18 14 10 10 9 8 2 3 6 7 7 7 7 8 7 8 8 9 9 11 12 12 12 12 13 13 13 12 11 12 12 12 12 12 13 13 13 13 12 11 11 10 9 9 8 7 7
Wind_Direction
262 253 240 239 230 232 239 239 231 125 116 84 70 18 6 37 47 112 159 142 127 136 144 153 150 148 144 137 131 127 121 116 111 106 101 95 92 87 84 82 81 79 76 74 73 73 72 70 70
268 244 231 234 234 233 227 215 203 138 106 91 94 200 145 88 94 116 142 127 133 138 145 153 151 150 147 141 136 131 127 121 116 111 106 101 96 92 89 86 83 81 80 78 76 74 73 72 70
265 250 227 222 235 240 239 174 164 125 112 131 154 208 59 99 117 133 136 131 136 139 147 149 152 151 148 145 141 136 131 126 122 116 111 106 101 97 93 91 88 85 83 80 78 76 74 73 71
243 222 244 242 241 240 254 147 133 131 132 174 174 146 90 57 96 118 129 138 139 140 141 147 154 152 150 148 145 141 137 132 127 122 117 111 106 102 98 95 93 90 87 84 81 78 75 73 70
243 232 229 243 251 252 240 113 124 151 158 186 224 142 105 84 100 120 138 143 144 143 140 150 156 155 153 151 149 146 143 138 133 128 123 117 113 109 105 101 98 95 92 88 83 80 76 73 69
230 236 228 230 238 239 219 138 154 207 182 172 204 183 114 129 123 138 145 145 146 142 140 152 158 157 156 154 152 150 148 146 141 135 130 126 122 118 113 108 103 99 94 89 84 80 76 72 68
246 254 256 251 233 216 197 152 188 220 213 175 178 189 126 147 138 143 146 149 144 140 141 151 159 159 159 158 156 154 153 150 146 141 137 134 131 127 122 116 109 102 97 91 85 81 77 72 67
262 270 256 257 257 221 165 148 204 239 237 165 165 207 143 146 141 143 148 150 143 144 146 154 160 161 161 160 160 157 156 154 150 146 142 141 139 136 132 126 119 112 104 97 89 85 82 81 80
264 257 254 244 250 233 135 160 191 338 303 149 106 64 112 133 143 143 149 151 150 155 155 159 163 165 164 164 164 159 158 157 152 149 148 150 154 152 147 135 133 128 123 117 109 110 130 186 211
217 244 251 276 310 315 136 179 182 180 243 213 128 104 117 141 154 158 165 170 168 169 168 165 167 167 166 167 162 164 162 160 159 158 161 173 169 155 144 142 152 157 161 161 170 204 248 246 223
215 239 260 278 313 346 343 214 224 217 227 219 186 158 154 165 171 177 180 180 178 174 173 171 168 167 164 162 163 169 167 168 171 167 173 179 156 142 141 155 169 184 195 200 201 226 246 256 181
239 242 247 263 266 257 282 274 251 233 247 264 247 154 160 173 184 190 191 186 178 176 178 174 169 165 164 165 167 168 167 171 172 170 174 173 156 157 164 175 180 189 198 197 203 224 244 265 283
235 247 252 253 249 230 255 264 267 259 259 274 286 152 170 184 192 197 198 192 180 179 178 177 171 167 165 165 169 169 167 168 169 171 178 175 164 168 168 178 176 188 185 183 210 241 253 265 286
245 240 247 247 236 228 240 254 256 254 255 251 247 220 199 199 202 201 199 197 187 180 178 177 175 170 166 169 171 170 168 168 170 171 181 179 173 170 167 175 171 177 176 200 224 247 257 309 321
257 263 255 241 228 222 237 250 244 248 247 244 237 230 216 212 208 207 203 199 190 180 176 178 178 173 171 172 174 171 168 168 169 173 179 183 182 176 173 172 169 176 185 209 246 287 295 287 287
235 243 249 241 223 209 213 250 250 241 227 233 236 237 230 219 212 207 203 197 189 176 174 178 180 177 175 175 175 171 172 171 172 175 179 184 185 182 175 169 172 178 181 195 202 242 266 288 302
231 231 233 234 215 207 209 246 256 253 227 226 232 237 236 226 216 207 198 191 185 177 174 176 178 180 178 175 174 171 172 173 174 173 177 183 185 180 174 173 177 178 175 181 200 213 178 326 334
218 225 233 234 206 204 216 237 249 259 249 236 235 237 239 232 222 206 193 185 180 178 175 175 178 180 176 174 173 173 173 175 173 172 178 181 184 179 175 173 178 176 164 176 189 203 174 127 359
248 250 245 246 225 212 227 241 246 245 247 246 241 239 238 237 228 206 190 179 175 175 176 176 178 180 177 179 179 180 181 176 172 173 179 181 180 177 173 169 174 166 165 175 179 159 134 76 45
237 250 259 268 258 244 253 256 255 247 244 243 243 242 240 238 231 213 191 179 177 179 180 179 179 180 181 181 180 178 174 173 172 170 177 178 175 173 175 173 167 161 163 170 166 144 134 126 98
228 233 243 255 275 263 267 266 254 250 242 241 240 239 239 235 228 213 195 185 178 181 183 183 181 180 180 173 170 168 163 160 167 173 175 175 175 174 175 176 165 161 162 167 165 152 148 158 136
230 226 237 248 257 261 255 274 256 252 246 236 233 232 232 230 225 212 197 186 183 184 181 180 178 177 177 172 176 176 179 178 176 173 171 173 175 173 173 173 168 162 158 159 161 148 145 140 153
227 221 230 237 248 260 256 267 260 237 240 234 229 225 225 224 218 209 195 184 180 174 172 176 175 175 175 177 179 181 182 179 164 164 168 173 172 169 170 170 164 159 156 155 148 142 144 147 159
212 209 235 245 244 249 236 240 263 227 229 228 218 214 212 205 198 193 179 169 167 162 164 170 175 176 177 180 182 185 183 177 171 171 173 173 169 169 168 166 163 161 155 153 149 149 153 155 153
197 189 207 213 220 239 212 226 247 220 217 216 213 212 195 188 178 181 174 170 166 164 167 173 176 177 179 183 186 188 186 183 178 174 174 171 169 171 171 162 163 159 154 151 149 152 160 162 161
199 197 199 202 214 228 201 224 239 217 199 194 193 193 195 191 181 181 180 172 168 168 171 176 180 180 180 185 188 188 186 185 181 176 172 173 173 172 166 163 163 159 154 153 152 154 165 163 167
202 209 219 246 272 275 240 228 227 214 201 199 195 196 198 194 184 180 178 170 168 172 177 180 181 180 182 185 186 186 185 183 177 172 167 169 166 166 163 164 162 158 157 157 156 164 169 168 175
215 198 201 217 228 241 251 247 240 215 206 207 197 193 190 182 178 175 175 173 170 172 174 177 180 182 181 183 185 184 183 179 173 169 170 168 164 162 162 165 163 161 161 161 161 166 170 172 180
203 205 195 199 221 222 236 238 224 212 199 188 181 173 168 172 174 174 173 171 166 166 171 178 182 181 181 182 181 179 179 175 170 171 169 165 161 161 165 167 167 166 166 166 167 173 173 180 186
207 209 202 202 207 216 240 253 247 160 158 158 157 151 150 158 164 167 167 165 167 171 176 181 184 183 181 180 179 178 175 170 170 169 166 161 162 164 166 167 168 170 169 170 173 178 178 184 192
Height
1505 1507 1510 1513 1515 1514 1510 1497 1488 1490 1492 1495 1498 1500 1501 1504 1509 1521 1520 1519 1519 1521 1523 1526 1528 1531 1533 1535 1537 1538 1540 1541 1542 1543 1544 1544 1545 1545 1545 1546 1546 1546 1547 1547 1547 1547 1547 1547 1547
1504 1508 1512 1512 1512 1516 1505 1492 1490 1490 1494 1497 1500 1502 1502 1506 1510 1515 1517 1519 1520 1521 1523 1526 1528 1531 1533 1535 1537 1539 1540 1541 1542 1543 1544 1545 1545 1546 1546 1546 1547 1547 1547 1548 1548 1548 1548 1548 1548
1504 1508 1511 1507 1507 1507 1496 1486 1488 1491 1495 1498 1501 1502 1503 1508 1511 1514 1516 1518 1520 1521 1523 1526 1528 1531 1533 1535 1537 1539 1540 1542 1543 1544 1545 1545 1546 1546 1547 1547 1547 1548 1548 1548 1549 1549 1549 1549 1549
1506 1509 1508 1504 1502 1493 1488 1484 1486 1491 1496 1499 1500 1502 1506 1509 1511 1513 1516 1518 1520 1522 1523 1526 1528 1531 1533 1535 1537 1539 1541 1542 1543 1544 1545 1546 1546 1547 1547 1548 1548 1549 1549 1549 1550 1550 1550 1550 1550
1506 1506 1506 1504 1497 1487 1483 1484 1487 1490 1495 1498 1499 1500 1505 1509 1510 1513 1515 1518 1520 1522 1523 1526 1528 1531 1533 1535 1537 1539 1541 1542 1544 1545 1546 1546 1547 1547 1548 1549 1549 1550 1550 1550 1551 1551 1551 1551 1552
1506 1502 1504 1504 1494 1485 1483 1485 1488 1490 1493 1496 1498 1499 1505 1507 1509 1513 1515 1518 1520 1522 1523 1526 1528 1530 1533 1535 1537 1539 1541 1542 1544 1545 1546 1547 1547 1548 1549 1549 1550 1550 1551 1551 1552 1552 1552 1553 1553
1504 1500 1499 1493 1489 1485 1482 1485 1489 1491 1491 1493 1496 1498 1503 1506 1508 1512 1515 1518 1520 1521 1522 1525 1527 1530 1532 1534 1537 1539 1540 1542 1544 1545 1546 1547 1548 1548 1549 1550 1551 1551 1552 1552 1553 1553 1553 1554 1554
1500 1499 1495 1491 1487 1483 1481 1485 1488 1490 1491 1492 1495 1496 1501 1504 1506 1510 1514 1517 1519 1521 1522 1523 1526 1528 1531 1533 1536 1538 1540 1542 1543 1544 1546 1547 1548 1549 1549 1550 1551 1552 1552 1553 1553 1554 1554 1554 1555
1500 1501 1496 1488 1485 1481 1480 1485 1489 1490 1491 1492 1494 1497 1499 1502 1505 1509 1512 1516 1518 1519 1521 1522 1524 1527 1529 1532 1534 1537 1539 1541 1542 1544 1545 1547 1548 1549 1550 1550 1551 1552 1552 1553 1554 1554 1554 1555 1555
1497 1499 1491 1481 1479 1480 1481 1484 1487 1490 1491 1492 1494 1497 1499 1501 1504 1506 1508 1511 1514 1516 1518 1520 1522 1525 1527 1530 1532 1535 1537 1539 1541 1543 1545 1546 1548 1549 1550 1551 1551 1552 1552 1553 1554 1554 1554 1554 1554
1491 1491 1486 1482 1481 1482 1483 1485 1487 1489 1490 1490 1492 1493 1496 1499 1501 1503 1505 1507 1510 1512 1515 1518 1520 1522 1525 1527 1530 1533 1535 1538 1540 1542 1544 1545 1547 1548 1549 1550 1551 1552 1552 1553 1553 1554 1554 1555 1555
1487 1484 1483 1482 1482 1483 1485 1485 1486 1487 1488 1489 1489 1490 1492 1495 1497 1500 1502 1505 1507 1510 1512 1515 1518 1520 1522 1525 1527 1530 1533 1535 1538 1540 1542 1544 1546 1547 1549 1550 1551 1551 1552 1553 1553 1553 1554 1555 1555
1483 1482 1481 1481 1482 1483 1485 1485 1485 1485 1486 1487 1488 1489 1490 1492 1494 1497 1499 1502 1504 1506 1508 1511 1514 1516 1519 1522 1525 1528 1530 1533 1536 1538 1541 1543 1545 1546 1548 1549 1550 1551 1552 1552 1553 1553 1554 1554 1554
1478 1478 1478 1478 1479 1481 1483 1483 1484 1482 1484 1484 1485 1486 1487 1489 1491 1493 1495 1498 1499 1501 1503 1507 1510 1513 1515 1518 1521 1525 1528 1530 1533 1536 1538 1541 1543 1545 1546 1548 1549 1550 1551 1552 1552 1553 1553 1553 1553
1476 1476 1476 1474 1475 1477 1481 1481 1479 1478 1479 1479 1480 1481 1482 1484 1486 1487 1489 1492 1494 1496 1498 1502 1505 1509 1511 1514 1518 1522 1525 1527 1530 1533 1536 1538 1541 1543 1544 1546 1547 1548 1549 1550 1551 1551 1551 1551 1551
1473 1476 1479 1472 1471 1473 1481 1481 1473 1472 1472 1473 1474 1475 1476 1478 1479 1481 1484 1486 1489 1491 1493 1497 1501 1504 1507 1510 1514 1518 1521 1524 1527 1530 1533 1536 1538 1541 1542 1544 1545 1546 1547 1548 1549 1549 1550 1550 1549
1473 1477 1475 1470 1465 1467 1473 1475 1469 1467 1467 1467 1469 1470 1471 1472 1473 1475 1477 1480 1483 1486 1488 1491 1495 1499 1502 1506 1510 1514 1518 1521 1524 1527 1530 1533 1536 1538 1540 1542 1543 1544 1545 1546 1547 1548 1548 1548 1547
1472 1471 1468 1466 1460 1463 1467 1468 1465 1464 1463 1463 1464 1464 1465 1465 1466 1468 1470 1473 1476 1480 1483 1486 1489 1493 1498 1502 1507 1511 1514 1518 1521 1523 1526 1530 1532 1535 1537 1539 1541 1542 1543 1544 1545 1546 1546 1546 1545
1462 1462 1463 1458 1454 1459 1462 1462 1459 1458 1458 1457 1457 1458 1458 1459 1460 1462 1464 1466 1469 1473 1476 1480 1483 1487 1492 1496 1500 1504 1508 1512 1516 1520 1523 1526 1529 1532 1534 1536 1538 1540 1541 1542 1543 1543 1544 1543 1543
1459 1462 1461 1457 1453 1456 1459 1457 1452 1450 1450 1450 1450 1450 1451 1452 1453 1455 1457 1459 1461 1465 1469 1473 1476 1480 1485 1489 1493 1498 1503 1508 1512 1516 1519 1523 1526 1528 1531 1533 1535 1537 1538 1539 1540 1541 1541 1541 1541
1454 1458 1459 1460 1456 1453 1458 1457 1450 1443 1442 1442 1442 1442 1443 1444 1446 1447 1449 1451 1454 1458 1462 1466 1469 1474 1479 1484 1489 1495 1500 1505 1508 1511 1515 1518 1522 1525 1527 1530 1532 1534 1535 1536 1538 1538 1539 1539 1539
1449 1448 1452 1456 1462 1463 1459 1463 1447 1439 1435 1433 1433 1434 1434 1436 1438 1440 1442 1444 1447 1451 1455 1460 1464 1468 1473 1478 1482 1487 1491 1495 1499 1504 1509 1514 1517 1521 1524 1526 1529 1530 1532 1533 1534 1535 1536 1536 1536
1441 1443 1448 1452 1459 1463 1459 1462 1445 1433 1432 1428 1426 1426 1427 1429 1431 1432 1435 1437 1440 1444 1449 1454 1459 1463 1467 1472 1476 1481 1486 1490 1496 1501 1505 1509 1513 1516 1519 1522 1525 1527 1529 1530 1531 1532 1533 1533 1534
1434 1442 1447 1451 1457 1465 1454 1458 1443 1430 1424 1421 1420 1420 1422 1423 1425 1427 1429 1431 1435 1439 1443 1448 1453 1457 1461 1466 1471 1476 1480 1486 1490 1495 1499 1504 1508 1512 1515 1518 1521 1523 1525 1526 1528 1529 1530 1530 1531
1431 1445 1461 1466 1467 1458 1441 1445 1432 1417 1412 1413 1414 1416 1418 1419 1420 1422 1424 1426 1429 1432 1437 1442 1447 1451 1456 1461 1465 1470 1476 1481 1485 1489 1493 1498 1502 1506 1509 1513 1516 1519 1521 1523 1524 1525 1526 1527 1527
1425 1434 1451 1458 1455 1442 1434 1434 1419 1406 1405 1407 1409 1412 1414 1415 1416 1418 1420 1422 1424 1427 1431 1436 1440 1445 1450 1455 1460 1466 1471 1476 1481 1485 1489 1493 1497 1501 1505 1509 1512 1514 1517 1519 1520 1522 1522 1523 1524
1420 1425 1426 1435 1435 1440 1429 1415 1407 1401 1402 1404 1406 1408 1410 1412 1413 1414 1416 1418 1420 1423 1426 1430 1435 1440 1445 1450 1456 1461 1466 1471 1476 1480 1485 1489 1493 1497 1501 1504 1507 1510 1512 1514 1516 1517 1518 1519 1520
1408 1416 1427 1435 1445 1448 1432 1421 1414 1404 1402 1401 1402 1404 1406 1408 1410 1411 1412 1414 1416 1419 1423 1427 1431 1436 1440 1446 1451 1456 1461 1466 1471 1476 1480 1484 1488 1492 1496 1499 1503 1505 1508 1510 1512 1513 1514 1515 1515
1405 1411 1416 1426 1430 1435 1433 1419 1392 1392 1393 1395 1398 1400 1402 1405 1406 1408 1409 1411 1414 1416 1419 1423 1427 1432 1436 1441 1446 1451 1456 1462 1466 1471 1475 1479 1483 1487 1491 1495 1498 1501 1503 1505 1507 1508 1510 1510 1511
1394 1399 1406 1420 1421 1419 1422 1411 1384 1385 1387 1390 1394 1397 1400 1402 1403 1405 1407 1408 1410 1413 1415 1419 1423 1427 1431 1436 1441 1446 1452 1457 1461 1466 1470 1474 1478 1482 1486 1490 1493 1495 1498 1500 1502 1503 1505 1505 1506